Regional Weather Roundup
Issued by NWS

Home | Current Version | Previous Version | Graphics & Text | Print | Product List | Glossary On
Versions: 1 2 3 4 5 6 7 8 9 10 11 12 13 14 15 16 17 18 19 20 21 22 23 24 25 26 27 28 29 30 31 32 33 34 35 36 37 38 39 40 41 42 43 44 45 46 47 48 49 50
434
ASUS45 KABQ 190910
RWRNM
NEW MEXICO REGIONAL WEATHER ROUNDUP
NATIONAL WEATHER SERVICE ALBUQUERQUE NM
200 AM MST THU JAN 19 2017

NOTE: "FAIR" MEANS FEW OR NO CLOUDS BELOW 12,000 FEET AGL WITH NO
       SIGNIFICANT WEATHER OR OBSTRUCTIONS TO VISION.

      THIS PRODUCT IS RELEASED AS TWO VERSIONS.  ONE VERSION NEAR
      THE TOP OF THE HOUR CONTAINING PRELIMINARY DATA FROM ALBUQUERQUE
      AND OTHER STATIONS.  A FINAL VERSION WITH ADDITIONAL DATA IS
      ISSUED ABOUT 10 MINUTES AFTER THE HOUR.

NMZ501-503-504-510>518-191000-
NORTHWEST PLATEAU/NORTHCENTRAL MOUNTAINS

CITY           SKY/WX    TMP DP  RH WIND       PRES   REMARKS
FARMINGTON     FAIR      25  22  88 NE6       29.95S WCI  18
LOS ALAMOS     FAIR      29  22  73 SW6       29.90F WCI  23
SANTA FE       FAIR      31  23  72 W9        29.89F WCI  23
TAOS           MOCLDY    25  16  68 N7        29.92R WCI  17
ANGEL FIRE     FAIR      25  19  79 W15       29.87F WCI  13

$$
NMZ402-403-502-505>509-191000-
WESTCENTRAL MOUNTAINS/SOUTHWEST MOUNTAINS

CITY           SKY/WX    TMP DP  RH WIND       PRES   REMARKS
GALLUP         FAIR      30  27  88 W5        29.98F WCI  25
GRANTS         FAIR      25  24  98 NW5       29.99S WCI  19
SILVER CITY    FAIR      32  30  92 NW9       30.02F WCI  25

$$
NMZ407-409-411-412-191000-
SOUTHERN DESERTS

CITY           SKY/WX    TMP DP  RH WIND       PRES   REMARKS
DEMING         FAIR      37  34  89 CALM      30.01F
LAS CRUCES     FAIR      39  35  85 W14       29.99F WCI  31
HOLLOMAN AFB   FAIR      37  35  90 SE3       29.99S
ALAMOGORDO     FAIR      39  32  75 S3        29.97S
T OR C         FAIR      38  29  70 NW8       29.95F WCI  32

$$
NMZ519>523-191000-
CENTRAL VALLEYS/CENTRAL HIGHLANDS

CITY           SKY/WX    TMP DP  RH WIND       PRES   REMARKS
ALBUQUERQUE    FAIR      35  29  78 W8        29.95S WCI  29
DOUBLE EAGLE   FAIR      29  28  93 W9        29.95S WCI  21
MORIARTY ARPT  FAIR      35  26  70 NW17      29.90R WCI  24
CLINES CORNERS FAIR      29  22  75 NW32G43   29.81F WCI  13
BELEN          FAIR      30  28  90 NW6       29.95S WCI  24
SOCORRO        FAIR      33  29  85 W6        29.96R WCI  28

$$
NMZ524>526-539-540-191000-
SOUTHCENTRAL MOUNTAINS

CITY           SKY/WX    TMP DP  RH WIND       PRES   REMARKS
RUIDOSO        FAIR      37  19  48 W17G26    29.89S WCI  28

$$
NMZ527>531-191000-
NORTHEAST HIGHLANDS/NORTHEAST PLAINS

CITY           SKY/WX    TMP DP  RH WIND       PRES   REMARKS
LAS VEGAS      FAIR      29  18  63 N18       29.72F WCI  16
RATON          FAIR      21  17  84 NE9       29.69F WCI  11
CLAYTON        FAIR      39  24  55 NW10      29.62F WCI  32

$$
NMZ532>537-191000-
EASTCENTRAL PLAINS

CITY           SKY/WX    TMP DP  RH WIND       PRES   REMARKS
TUCUMCARI      FAIR      34  28  79 W10       29.66F WCI  26
CANNON AFB     FAIR      42  36  81 SW22G29   29.72F
CLOVIS AIRPORT FAIR      41  30  65 SW20      29.72F

$$
NMZ028-029-538-191000-
SOUTHEAST PLAINS

CITY           SKY/WX    TMP DP  RH WIND       PRES   REMARKS
ROSWELL        FAIR      37  32  82 SW8       29.82F WCI  31
ARTESIA        FAIR      45  39  81 SW14      29.85S
CARLSBAD       FAIR      42  36  79 NW8       29.85F


$$




USA.gov is the U.S. government's official web portal to all federal, state and local government web resources and services.